Weather in Faridabad

India     28°23′16″N   77°19′04″E
temp.,
°C
wind,
m/s
gust,
m/s
humid.,
%
clouds,
%
prec.,
mm/h
press.,
hPa
HPBL,
m
24 may, tue
tue2423:30+27se7105863 13.5 1000755
02:30+24ene81167100 2.5 1002650
05:30+25se476128 2.9 1002412
08:30+28ese46480 0.0 1005670
11:30+33se34340 0.0 10041428
14:30+37ese23270 0.0 10022461
17:30+38ene24210 0.0 10002951
20:30+36ne34251 0.1 1001904
25 may, wed
wed2523:30+29e59350 1.5 1004412
02:30+29ese35350 0.1 1004295
05:30+29ese34380 0.3 1004288
08:30+31se35310 0.0 1006485
11:30+37sse23220 0.0 10041519
14:30+39nw36160 0.0 10024033
17:30+39wnw46160 0.0 10003866
20:30+38nw46150 0.0 10002721
26 may, thu
thu2623:30+36n37160 0.0 1001578
02:30+34ne13190 0.0 1000183
05:30+33wsw11190 0.0 100116
08:30+36nw12170 0.0 1002673
11:30+40wnw36140 0.0 10013170
14:30+42nw46110 0.0 9983897
17:30+42nw47110 0.0 9963948
20:30+40n47120 0.0 9971915
27 may, fri
fri2723:30+38nne25140 0.0 997277
02:30+36sw351636 0.0 996178
05:30+35wsw4101863 0.0 997386
08:30+36w6102860 0.0 999767
11:30+40wnw67230 0.0 9982205
14:30+43wnw58160 0.0 9953688
17:30+44nw510130 0.0 9934473
20:30+42w251446 0.0 994478
28 may, sat
sat2823:30+37sse462212 0.1 995499
02:30+37sw252536 0.0 994568
05:30+35wsw58350 0.0 996850
08:30+35wsw34371 0.0 9981116
11:30+39sw34270 0.0 9971936
14:30+43sw45190 0.0 9943015
17:30+44sw48141 0.0 9924221
20:30+32e8144330 0.0 995490